This is the latest recevied weather packets stored in our database for station/object OK4PZ-5. If no packets are shown the sender has not sent any weather packets the latest 10 day(s).
| Time | Temp. | Humidity | Pressure | Rain* | Wind** | Luminosity | Snow |
|---|---|---|---|---|---|---|---|
| 1788034513 | 15° C | 92% | 1019 hPa | 0 mm | - | - | - |
| 1788033602 | 15° C | 91% | 1019 hPa | 0 mm | - | - | - |
| 1788032702 | 15.56° C | 90% | 1019 hPa | 0 mm | - | - | - |
| 1788031802 | 15.56° C | 88% | 1019 hPa | 0 mm | - | - | - |
| 1788030902 | 15.56° C | 87% | 1019 hPa | 0 mm | - | - | - |
| 1788030002 | 16.11° C | 86% | 1019 hPa | 0 mm | - | - | - |
| 1788029103 | 16.67° C | 84% | 1019 hPa | 0 mm | - | - | - |
| 1788028202 | 16.67° C | 83% | 1019 hPa | 0 mm | - | - | - |
| 1788027302 | 17.78° C | 80% | 1018 hPa | 0 mm | - | - | - |
| 1788026402 | 18.33° C | 77% | 1018 hPa | 0 mm | - | - | - |
| 1788025502 | 19.44° C | 73% | 1018 hPa | 0 mm | - | - | - |
| 1788024603 | 20.56° C | 65% | 1018 hPa | 0 mm | - | - | - |
| 1788023701 | 21.67° C | 58% | 1018 hPa | 0 mm | - | - | - |
| 1788021902 | 23.33° C | 50% | 1018 hPa | 0 mm | - | - | - |
| 1788021001 | 23.33° C | 52% | 1018 hPa | 0 mm | - | - | - |
| 1788020103 | 23.89° C | 49% | 1018 hPa | 0 mm | - | - | - |
| 1788019202 | 23.89° C | 50% | 1018 hPa | 0 mm | - | - | - |
| 1788017402 | 24.44° C | 48% | 1018 hPa | 0 mm | - | - | - |
| 1788016510 | 24.44° C | 48% | 1018 hPa | 0 mm | - | - | - |
| 1788015602 | 23.33° C | 50% | 1018 hPa | 0 mm | - | - | - |
| 1788014702 | 23.89° C | 48% | 1019 hPa | 0 mm | - | - | - |
| 1788013803 | 25° C | 49% | 1018 hPa | 0 mm | - | - | - |
| 1788012902 | 24.44° C | 49% | 1019 hPa | 0 mm | - | - | - |
| 1788012002 | 25° C | 49% | 1019 hPa | 0 mm | - | - | - |
| 1788011103 | 25° C | 48% | 1019 hPa | 0 mm | - | - | - |
* Rain latest hour (hover to see other rain measurements)
** Current wind speed in m/s (hover to see current wind gust speed)